Location: Bodmin Moor
(50.5333°N, 4.5833°W)
Time: 00:39:34
(UTC+00:00)

Daily predictions for brighter satellites

Satellite Brightness Start Highest point End
(mag) Time Altitude Azimuth Time Altitude Azimuth Time Altitude Azimuth
Cosmos 1697 Rocket 4.2 03:32:35 33° ENE 03:32:35 33° ENE 03:36:40 10° ESE
ATLAS 2AS CENTAUR R/B 4.1 03:32:41 31° N 03:33:49 33° N 03:40:32 10° ENE
CZ-2C R/B 4.4 03:51:45 10° NE 03:55:52 25° E 03:59:51 10° SSE
Lacrosse 5 rocket 4.2 04:01:34 12° NE 04:01:34 12° NE 04:01:54 10° NE
ADEOS 4.4 03:57:20 10° NNE 04:01:21 46° ENE 04:01:21 46° ENE
USA 234 3.6 04:07:17 10° ENE 04:13:34 51° N 04:14:11 49° NNW
CZ-4C R/B 2.6 04:19:52 57° N 04:19:52 57° N 04:25:12 10° NE
Cosmos 1833 Rocket 4.0 04:15:59 16° SSE 04:19:50 37° ESE 04:24:57 10° NE
COSMOS 2455 4.5 04:18:33 20° N 04:21:17 28° NNE 04:26:24 10° E
SL-16 R/B 4.3 04:17:56 13° N 04:21:33 22° NE 04:25:52 10° E
Cosmos 1934 Rocket 4.4 04:17:52 10° S 04:24:01 61° E 04:30:18 10° NNE
SL-4 R/B 2.9 04:28:59 58° ENE 04:28:59 58° ENE 04:32:55 10° ENE
H-2A R/B 3.2 04:26:26 10° NNE 04:30:50 58° E 04:30:50 58° E
MSX 3.9 04:26:14 10° NNE 04:32:01 77° ESE 04:34:50 32° S
Cosmos 1980 Rocket 2.8 04:31:29 29° N 04:34:13 54° NE 04:39:48 10° SE
Cosmos 2322 Rocket 4.2 04:30:20 11° N 04:34:24 22° NE 04:38:47 10° E
Cosmos 923 Rocket 4.3 04:35:54 41° N 04:37:36 64° ENE 04:42:46 10° SE
Cosmos 2239 Rocket 4.3 04:35:56 49° SSW 04:37:44 83° W 04:43:56 10° N
Meteor 1-27 4.4 04:37:45 10° N 04:43:37 76° ENE 04:49:28 10° SSE
Cosmos 2123 Rocket 3.8 04:39:16 10° NNW 04:45:29 82° W 04:51:41 10° S
Meteor 1-31 Rocket 3.7 04:42:03 10° NNE 04:45:46 46° E 04:47:20 29° SSE
Cosmos 2369 3.6 04:46:04 66° WNW 04:46:47 76° WSW 04:52:29 10° SSE
IDEFIX/ARIANE 42P 3.1 04:48:03 10° N 04:51:46 41° NNW 04:51:46 41° NNW
Cosmos 2360 4.2 04:53:12 33° NNW 04:55:54 85° ENE 05:01:39 10° SSE
GENESIS II 4.4 04:56:25 73° ESE 04:56:25 73° ESE 05:00:07 10° SE
Cosmos 1821 Rocket 4.0 04:59:32 50° W 05:00:19 53° WNW 05:06:21 10° N
SJ-6F 4.3 04:57:31 10° NNE 05:01:29 82° NNW 05:01:29 82° NNW
Cosmos 1605 Rocket 4.1 04:57:16 10° S 05:03:28 77° E 05:09:38 10° NNE
CZ-4B R/B 4.3 04:59:02 10° NNE 05:03:30 74° ESE 05:08:00 10° S
Cosmos 2278 3.6 05:05:37 36° NW 05:08:00 71° WSW 05:13:41 10° SSE
Cosmos 1076 Rocket 4.3 05:04:31 10° S 05:08:46 53° E 05:13:02 10° NNE
ALOS 4.1 05:08:58 10° NNE 05:13:11 32° E 05:17:22 10° SSE
Cosmos 1697 Rocket 2.8 05:14:23 42° WNW 05:15:43 51° WSW 05:21:07 10° S
Meteor 1-11 4.1 05:11:17 10° SSW 05:16:59 71° WNW 05:22:48 10° N
Cosmos 2221 2.5 05:16:47 54° WNW 05:17:16 57° W 05:21:34 10° S
COSMOS 2406 3.4 05:15:43 40° W 05:17:19 52° NW 05:22:58 10° NNE
PSLV R/B 4.3 05:15:24 10° NNE 05:19:10 58° ESE 05:22:59 10° S
STARLINK-67 3.8 05:24:31 36° NE 05:24:31 36° NE 05:26:27 10° ENE
COSMO-SKYMED 1 2.5 05:20:55 10° SSE 05:25:17 89° ENE 05:29:40 10° NNW
STARLINK-46 2.9 05:26:11 65° NNE 05:26:11 65° NNE 05:28:53 10° ENE
ATLAS 2AS CENTAUR R/B 3.4 05:20:07 16° NW 05:26:27 57° NE 05:33:38 10° ESE
Cosmos 2058 3.5 05:22:54 10° S 05:27:03 61° E 05:31:14 10° NNE
NOSS 2-1 (C) 4.1 05:32:34 31° NNW 05:32:34 31° NNW 05:36:16 10° NNE
ISS -1.4 05:34:31 14° SSW 05:34:31 14° SSW 05:35:32 10° S
CZ-4B R/B 2.6 05:30:16 10° N 05:33:49 55° WNW 05:35:21 30° SW
Cosmos 1461 3.0 05:33:30 42° WNW 05:33:57 44° NW 05:37:47 10° NNE
Okean O Rocket 3.0 05:30:07 10° NNE 05:34:15 40° E 05:38:20 10° S
CZ-2C R/B 2.5 05:29:33 10° N 05:34:23 50° WNW 05:39:03 10° SW
ASTEX 1 3.5 05:29:48 10° S 05:34:38 53° W 05:39:32 10° NNW
NOSS 2-1 (D) 4.2 05:35:46 30° NW 05:35:55 30° NNW 05:39:37 10° NNE
Lacrosse 5 rocket 2.1 05:37:13 28° NNW 05:37:51 29° N 05:41:05 10° ENE
Cosmos 2082 Rocket 2.2 05:32:12 10° SSW 05:37:56 89° WNW 05:43:42 10° NNE
SJ 16-02 2.5 05:35:55 10° S 05:40:06 45° ESE 05:44:19 10° NNE
Cosmos 1356 Rocket 3.4 05:37:25 10° NNW 05:41:42 64° W 05:45:57 10° S
ADEOS 4.5 05:37:24 10° N 05:41:44 27° WNW 05:42:08 27° WNW
SJ-12 4.2 05:38:08 10° NNE 05:42:17 73° ESE 05:46:26 10° S
Lacrosse 5 2.4 05:37:23 10° SW 05:42:22 58° SE 05:47:23 10° ENE
Shenzhou-11 Module 4.3 05:43:45 12° SSW 05:44:50 14° S 05:46:25 10° SE
Cosmos 2112 Rocket 4.1 05:43:22 13° NNW 05:47:56 56° WSW 05:53:06 10° S
STARLINK-52 3.9 05:47:53 18° SW 05:50:16 51° SSE 05:53:43 10° ENE
Cosmos 1459 Rocket 4.2 05:48:59 10° S 05:55:07 74° E 06:01:23 10° NNE
USA 234 3.5 05:49:40 10° E 05:56:09 67° NNE 06:01:31 16° WNW
Cosmos 1680 Rocket 3.9 05:52:16 14° NW 05:56:22 41° WSW 06:01:20 10° S
MOS 1-B 4.3 05:51:18 10° NNE 05:57:09 82° WNW 06:02:57 10° SSW
DMSP B5D1-3 4.5 05:57:12 10° SSE 06:02:19 86° WSW 06:07:31 10° NNW
Cosmos 2151 3.3 05:58:15 10° S 06:02:32 71° E 06:06:51 10° NNE
Cosmos 1833 Rocket 3.0 05:58:18 10° SW 06:03:41 46° NW 06:09:06 10° NNE
STARLINK-29 3.4 06:02:32 15° SW 06:05:18 67° SSE 06:08:45 10° ENE
deb Kosmos-1763 4.1 06:02:19 10° SSW 06:06:00 85° ESE 06:09:45 10° NNE
H-2A R/B 3.9 06:02:38 10° N 06:06:02 21° WNW 06:07:24 19° W
SL-16 R/B 2.3 06:00:51 10° NNW 06:06:35 81° ENE 06:12:16 10° SSE
BREEZE-M DEB (TANK) 3.5 06:05:22 17° WSW 06:07:15 31° SSW 06:09:41 10° SE
SL-4 R/B 2.4 06:04:36 20° W 06:07:59 81° N 06:12:48 10° E
COSMOS 2455 2.9 06:01:57 10° NW 06:08:01 88° NE 06:14:03 10° SE
Cosmos 2100 Rocket 4.0 06:02:11 10° S 06:08:24 85° W 06:14:37 10° N
CZ-4C R/B 3.5 06:05:04 17° WNW 06:08:34 30° NNW 06:14:25 10° NE
Cosmos 2237 Rocket 4.5 06:05:55 10° N 06:08:52 14° NNE 06:11:49 10° ENE
Cosmos 2360 Rocket 3.2 06:06:49 10° NNW 06:12:18 46° NE 06:17:46 10° SE
SKYMED 2 4.3 06:09:41 10° SSW 06:13:34 32° W 06:17:30 10° NNW
SL-27 R/B 2.2 06:11:13 10° SSW 06:14:30 76° WNW 06:17:51 10° NNE
Gbstr 26 Del rocket 4.2 06:13:19 10° SW 06:16:47 35° SSE 06:20:14 10° E
Cosmos 1802 Rocket 4.1 06:11:27 10° S 06:17:53 88° E 06:24:22 10° N
Cosmos 1980 Rocket 3.0 06:13:18 11° NW 06:17:59 31° WSW 06:22:56 10° SSW
Cosmos 2322 Rocket 2.3 06:13:35 10° NNW 06:19:17 86° ENE 06:24:58 10° SSE
USA 116 4.0 06:16:57 10° SSW 06:19:47 31° W 06:22:49 10° NNW
Meteor 1-31 Rocket 4.1 06:17:10 10° NNW 06:19:55 19° WNW 06:22:39 10° WSW
Cosmos 1515 Rocket 4.0 06:16:05 10° N 06:20:25 65° ENE 06:24:44 10° SSE
Cosmos 2061 Rocket 4.1 06:16:22 10° S 06:22:38 85° E 06:28:53 10° N
Cosmos 1869 4.4 06:20:48 10° NW 06:23:54 22° W 06:26:59 10° SW
Cosmos 1328 Rocket 3.5 06:20:54 10° NNW 06:25:17 74° W 06:29:35 10° S
STARLINK-60 3.0 06:23:22 12° WSW 06:26:28 81° NNW 06:29:52 10° ENE
FALCON 9 DEB 3.1 06:23:19 10° WSW 06:26:44 90° NNW 06:30:11 10° ENE
Cosmos 967 Rocket 4.5 06:21:30 10° SW 06:27:49 69° NW 06:34:16 10° NE
Cosmos 1484 Rocket 3.6 06:24:29 10° N 06:27:58 29° WNW 06:31:27 10° SW
Cosmos 990 Rocket 3.9 06:23:26 10° SSW 06:28:34 67° WNW 06:33:47 10° NNE
Cosmos 158 Rocket 4.5 06:25:09 10° NW 06:29:43 36° WSW 06:34:12 10° S
IDEFIX/ARIANE 42P 4.4 06:30:23 10° NW 06:31:35 11° NW 06:32:35 10° WNW
Cosmos 2084 Rocket 4.0 06:28:38 10° WSW 06:32:53 43° NW 06:37:10 10° NE
CZ-2C R/B 4.2 06:29:09 10° SSE 06:33:35 63° ENE 06:38:08 10° N
ADEOS Rocket 3.9 06:27:54 10° SSE 06:35:38 72° ENE 06:43:07 10° NNW
NOSS 3-4 (A) 3.9 06:30:20 10° NW 06:37:16 88° NE 06:44:53 10° SE
NOSS 3-4 (C) 3.9 06:30:27 10° NW 06:37:22 87° NE 06:44:59 10° SE
Cosmos 2333 Rocket 3.7 06:33:28 10° NNW 06:38:38 32° NE 06:43:47 10° ESE
SOZ 4.3 06:34:08 10° WSW 06:38:40 80° SSE 06:40:54 10° ENE
Cosmos 1151 Rocket 3.1 06:34:42 10° NNW 06:39:03 58° W 06:43:20 10° S
PAYLOAD B 4.4 06:34:16 10° N 06:39:35 50° WNW 06:44:51 10° SW
Helios 1A Rocket 3.3 06:39:33 10° N 06:43:27 41° WNW 06:47:18 10° SW
Okean 3 Rocket 4.0 06:39:13 10° SW 06:43:30 40° WNW 06:47:47 10° N
STARLINK-43 4.3 06:39:57 10° SW 06:43:33 50° SSE 06:47:11 10° ENE
CZ-4B R/B 3.2 06:39:23 10° N 06:44:38 58° WNW 06:49:55 10° SW
Cosmos 839 Rocket 4.3 06:40:37 10° WSW 06:47:19 50° NW 06:53:21 10° NE
Cosmos 1898 Rocket 3.8 06:42:29 10° SW 06:47:32 48° WNW 06:52:40 10° NNE
NOSS 3-3 (A) 4.1 06:42:07 10° SW 06:48:15 82° NW 06:55:12 10° NE
NOSS 3-3 (C) 4.0 06:42:20 10° SW 06:48:23 82° NW 06:55:15 10° NE
Cosmos 1408 Rocket 3.5 06:44:33 10° SSW 06:48:49 65° WNW 06:53:08 10° N
Cosmos 1933 3.3 06:44:57 10° NNW 06:49:00 77° W 06:53:00 10° S
IRS-1C Rocket 4.3 06:45:05 10° NNE 06:50:24 81° ESE 06:55:41 10° SSW
Cosmos 1606 2.7 06:46:38 10° N 06:50:26 89° W 06:54:12 10° S
ALOS 2.8 06:46:22 10° N 06:50:38 36° WNW 06:54:54 10° SW
Cosmos 2173 Rocket 4.2 06:44:42 10° SSW 06:50:45 48° WNW 06:56:46 10° N
AQUARIUS 4.5 06:46:50 10° NNE 06:51:22 75° ESE 06:55:52 10° S
Cosmos 1500 Rocket 4.1 06:48:37 10° S 06:53:04 69° E 06:57:31 10° NNE
SAR-Lupe-2 3.6 06:50:32 10° SSE 06:54:06 89° WSW 06:57:43 10° NNW
Cosmos 1892 3.5 06:50:59 10° SW 06:54:19 29° WNW 06:57:40 10° N
NOAA 6 4.3 06:52:07 10° N 06:57:00 44° WNW 07:01:50 10° SW
